DFJOE GCLB-LEJR

Flight info

Callsign DFJOE
Flight time 2h 44m
Altitude 26000
Route GDV/N0261F260 IFR N871 KORAL UG5 SONSO DCT NIRAL UN871 ADUBI N871 VJF
Aircraft P46T/L-SBDGRWY/SB1

Departure

Time 2026-05-06 13:10
Airport El Berriel Aeroc Airport (GCLB)

Arrival

Time 2026-05-06 15:54
Airport Jerez Airport (LEJR)
Time Latitude Longitude Altitude Speed Heading
2026-05-06 12:53 27.78294 -15.51097 33 ft 0 kts 253°
2026-05-06 13:05 27.78294 -15.51099 33 ft 1 kts 275°
2026-05-06 13:05 27.78299 -15.51102 34 ft 3 kts 13°
2026-05-06 13:05 27.78292 -15.51052 31 ft 15 kts 142°
2026-05-06 13:06 27.78196 -15.51002 19 ft 0 kts 160°
2026-05-06 13:08 27.78174 -15.50994 18 ft 11 kts 171°
2026-05-06 13:08 27.78120 -15.51087 23 ft 19 kts 257°
2026-05-06 13:08 27.78101 -15.51122 24 ft 4 kts 98°
2026-05-06 13:08 27.78107 -15.51114 24 ft 0 kts 61°
2026-05-06 13:09 27.78108 -15.51113 24 ft 4 kts 63°
2026-05-06 13:09 27.78194 -15.50868 16 ft 60 kts 68°
2026-05-06 13:09 27.78394 -15.50309 98 ft 89 kts 66°
2026-05-06 13:09 27.78621 -15.49666 398 ft 92 kts 65°
2026-05-06 13:10 27.78859 -15.48902 451 ft 114 kts 65°
2026-05-06 13:10 27.79453 -15.48190 581 ft 136 kts 30°
2026-05-06 13:10 27.80352 -15.47951 1138 ft 132 kts 12°
2026-05-06 13:10 27.81251 -15.47783 1595 ft 134 kts 13°
2026-05-06 13:11 27.82176 -15.47609 2062 ft 134 kts 12°
2026-05-06 13:11 27.83092 -15.47440 2509 ft 134 kts 11°
2026-05-06 13:11 27.84013 -15.47270 2948 ft 134 kts 10°
2026-05-06 13:11 27.84945 -15.47103 3354 ft 138 kts
2026-05-06 13:12 27.85893 -15.46926 3779 ft 139 kts
2026-05-06 13:12 27.86883 -15.46743 4119 ft 145 kts
2026-05-06 13:12 27.87796 -15.46574 4549 ft 144 kts
2026-05-06 13:12 27.88793 -15.46391 4940 ft 146 kts
2026-05-06 13:13 27.89807 -15.46204 5325 ft 149 kts
2026-05-06 13:13 27.90830 -15.46014 5688 ft 151 kts
2026-05-06 13:13 27.91875 -15.45822 6054 ft 152 kts
2026-05-06 13:13 27.92905 -15.45633 6439 ft 153 kts
2026-05-06 13:14 27.93957 -15.45440 6838 ft 154 kts
2026-05-06 13:14 27.95019 -15.45241 7202 ft 155 kts
2026-05-06 13:14 27.96091 -15.45045 7589 ft 157 kts
2026-05-06 13:14 27.97178 -15.44844 7966 ft 159 kts
2026-05-06 13:15 27.98276 -15.44640 8311 ft 160 kts
2026-05-06 13:15 27.99381 -15.44439 8703 ft 162 kts
2026-05-06 13:15 28.00502 -15.44231 9062 ft 164 kts
2026-05-06 13:15 28.01631 -15.44023 9453 ft 165 kts
2026-05-06 13:16 28.02770 -15.43811 9824 ft 167 kts
2026-05-06 13:16 28.03915 -15.43599 10190 ft 167 kts
2026-05-06 13:16 28.05067 -15.43388 10523 ft 168 kts
2026-05-06 13:16 28.06231 -15.43172 10846 ft 171 kts
2026-05-06 13:17 28.07357 -15.42769 11194 ft 176 kts 26°
2026-05-06 13:17 28.08301 -15.41863 11521 ft 182 kts 49°
2026-05-06 13:17 28.09009 -15.40652 11833 ft 186 kts 54°
2026-05-06 13:17 28.09721 -15.39427 12186 ft 187 kts 54°
2026-05-06 13:18 28.10439 -15.38193 12540 ft 188 kts 54°
2026-05-06 13:18 28.11160 -15.36949 12883 ft 190 kts 54°
2026-05-06 13:18 28.11887 -15.35692 13232 ft 191 kts 54°
2026-05-06 13:18 28.12622 -15.34427 13572 ft 193 kts 54°
2026-05-06 13:19 28.13362 -15.33150 13913 ft 194 kts 54°
2026-05-06 13:19 28.14106 -15.31865 14222 ft 196 kts 54°
2026-05-06 13:19 28.14853 -15.30574 14526 ft 197 kts 54°
2026-05-06 13:19 28.15607 -15.29272 14828 ft 198 kts 54°
2026-05-06 13:20 28.16364 -15.27962 15134 ft 199 kts 54°
2026-05-06 13:20 28.17125 -15.26647 15439 ft 200 kts 54°
2026-05-06 13:20 28.17890 -15.25323 15741 ft 202 kts 54°
2026-05-06 13:20 28.18662 -15.23990 16058 ft 203 kts 54°
2026-05-06 13:21 28.19436 -15.22650 16368 ft 204 kts 54°
2026-05-06 13:21 28.20218 -15.21296 16673 ft 205 kts 54°
2026-05-06 13:21 28.20992 -15.19955 16982 ft 206 kts 54°
2026-05-06 13:21 28.21781 -15.18590 17289 ft 208 kts 54°
2026-05-06 13:22 28.22574 -15.17215 17600 ft 209 kts 54°
2026-05-06 13:22 28.23371 -15.15834 17909 ft 210 kts 54°
2026-05-06 13:22 28.24173 -15.14444 18217 ft 211 kts 54°
2026-05-06 13:22 28.24978 -15.13047 18500 ft 212 kts 54°
2026-05-06 13:23 28.25785 -15.11647 18764 ft 213 kts 54°
2026-05-06 13:23 28.26598 -15.10236 19036 ft 214 kts 54°
2026-05-06 13:23 28.27414 -15.08822 19312 ft 214 kts 54°
2026-05-06 13:23 28.28231 -15.07401 19585 ft 215 kts 54°
2026-05-06 13:24 28.29052 -15.05974 19857 ft 216 kts 54°
2026-05-06 13:24 28.29876 -15.04541 20134 ft 217 kts 54°
2026-05-06 13:24 28.30671 -15.03162 20696 ft 199 kts 54°
2026-05-06 13:24 28.31427 -15.01857 21056 ft 198 kts 53°
2026-05-06 13:25 28.32185 -15.00542 21366 ft 200 kts 54°
2026-05-06 13:25 28.32945 -14.99218 21692 ft 200 kts 54°
2026-05-06 13:25 28.33706 -14.97891 22016 ft 201 kts 54°
2026-05-06 13:25 28.34471 -14.96560 22340 ft 202 kts 54°
2026-05-06 13:26 28.35240 -14.95223 22662 ft 203 kts 54°
2026-05-06 13:26 28.36010 -14.93879 22991 ft 203 kts 54°
2026-05-06 13:26 28.36777 -14.92545 23291 ft 206 kts 54°
2026-05-06 13:26 28.37562 -14.91176 23597 ft 207 kts 54°
2026-05-06 13:27 28.38350 -14.89800 23871 ft 208 kts 54°
2026-05-06 13:27 28.39145 -14.88415 24128 ft 210 kts 54°
2026-05-06 13:27 28.39972 -14.87041 24383 ft 211 kts 52°
2026-05-06 13:27 28.40729 -14.85607 24632 ft 214 kts 58°
2026-05-06 13:28 28.41524 -14.84170 24888 ft 215 kts 54°
2026-05-06 13:28 28.42369 -14.82766 25142 ft 216 kts 54°
2026-05-06 13:28 28.43205 -14.81336 25408 ft 218 kts 54°
2026-05-06 13:28 28.44027 -14.79895 25699 ft 217 kts 55°
2026-05-06 13:29 28.44848 -14.78451 25964 ft 218 kts 55°
2026-05-06 13:29 28.45694 -14.76970 26036 ft 230 kts 55°
2026-05-06 13:29 28.46588 -14.75401 26047 ft 243 kts 56°
2026-05-06 13:29 28.47514 -14.73771 26047 ft 254 kts 56°
2026-05-06 13:30 28.48491 -14.72057 26047 ft 262 kts 56°
2026-05-06 13:30 28.49494 -14.70298 26046 ft 269 kts 56°
2026-05-06 13:30 28.50519 -14.68498 26044 ft 274 kts 56°
2026-05-06 13:30 28.51562 -14.66669 26046 ft 277 kts 56°
2026-05-06 13:31 28.52617 -14.64819 26041 ft 279 kts 56°
2026-05-06 13:31 28.53674 -14.62962 26043 ft 281 kts 56°
2026-05-06 13:31 28.54740 -14.61092 26042 ft 281 kts 56°
2026-05-06 13:31 28.55802 -14.59226 26041 ft 281 kts 56°
2026-05-06 13:32 28.56877 -14.57357 26041 ft 282 kts 55°
2026-05-06 13:32 28.57954 -14.55488 26040 ft 283 kts 56°
2026-05-06 13:32 28.59009 -14.53625 26040 ft 284 kts 56°
2026-05-06 13:32 28.60082 -14.51728 26042 ft 285 kts 56°
2026-05-06 13:33 28.61159 -14.49833 26041 ft 286 kts 56°
2026-05-06 13:33 28.62237 -14.47937 26042 ft 286 kts 56°
2026-05-06 13:33 28.63321 -14.46030 26042 ft 287 kts 56°
2026-05-06 13:33 28.64404 -14.44119 26042 ft 287 kts 56°
2026-05-06 13:34 28.65485 -14.42212 26040 ft 287 kts 56°
2026-05-06 13:34 28.66571 -14.40298 26040 ft 287 kts 56°
2026-05-06 13:34 28.67653 -14.38386 26041 ft 287 kts 56°
2026-05-06 13:34 28.68739 -14.36470 26041 ft 287 kts 56°
2026-05-06 13:35 28.69823 -14.34555 26040 ft 288 kts 56°
2026-05-06 13:35 28.70907 -14.32639 26040 ft 288 kts 56°
2026-05-06 13:35 28.71991 -14.30721 26041 ft 288 kts 56°
2026-05-06 13:35 28.73074 -14.28806 26041 ft 288 kts 56°
2026-05-06 13:36 28.74158 -14.26889 26042 ft 288 kts 56°
2026-05-06 13:36 28.75240 -14.24973 26042 ft 287 kts 56°
2026-05-06 13:36 28.76308 -14.23081 26042 ft 287 kts 56°
2026-05-06 13:36 28.77388 -14.21167 26037 ft 287 kts 56°
2026-05-06 13:37 28.78474 -14.19245 26044 ft 289 kts 56°
2026-05-06 13:37 28.79576 -14.17290 26045 ft 289 kts 56°
2026-05-06 13:37 28.80646 -14.15386 26043 ft 289 kts 56°
2026-05-06 13:37 28.81733 -14.13458 26045 ft 289 kts 56°
2026-05-06 13:38 28.82818 -14.11531 26045 ft 289 kts 56°
2026-05-06 13:38 28.83909 -14.09592 26045 ft 289 kts 56°
2026-05-06 13:38 28.84994 -14.07664 26045 ft 289 kts 56°
2026-05-06 13:38 28.86073 -14.05744 26046 ft 289 kts 56°
2026-05-06 13:39 28.87162 -14.03807 26043 ft 289 kts 56°
2026-05-06 13:39 28.88247 -14.01873 26043 ft 289 kts 56°
2026-05-06 13:39 28.89333 -13.99940 26042 ft 289 kts 56°
2026-05-06 13:39 28.90420 -13.98005 26042 ft 289 kts 56°
2026-05-06 13:40 28.91503 -13.96073 26041 ft 289 kts 56°
2026-05-06 13:40 28.92588 -13.94136 26039 ft 289 kts 56°
2026-05-06 13:40 28.93673 -13.92201 26036 ft 289 kts 56°
2026-05-06 13:40 28.94757 -13.90266 26037 ft 289 kts 56°
2026-05-06 13:41 28.95842 -13.88327 26037 ft 289 kts 56°
2026-05-06 13:41 28.96925 -13.86393 26035 ft 289 kts 56°
2026-05-06 13:41 28.97643 -13.85110 26028 ft 289 kts 56°
2026-05-06 13:41 28.99099 -13.82506 26022 ft 292 kts 56°
2026-05-06 13:42 28.99823 -13.81210 26022 ft 293 kts 56°
2026-05-06 13:42 29.01281 -13.78600 26027 ft 294 kts 56°
2026-05-06 13:42 29.02384 -13.76624 26024 ft 295 kts 56°
2026-05-06 13:42 29.03489 -13.74643 26025 ft 296 kts 56°
2026-05-06 13:43 29.04237 -13.73304 26026 ft 296 kts 56°
2026-05-06 13:43 29.05343 -13.71320 26028 ft 296 kts 56°
2026-05-06 13:43 29.06435 -13.69360 26028 ft 296 kts 56°
2026-05-06 13:43 29.07542 -13.67374 26028 ft 296 kts 56°
2026-05-06 13:44 29.08649 -13.65385 26027 ft 296 kts 56°
2026-05-06 13:44 29.09758 -13.63394 26027 ft 297 kts 56°
2026-05-06 13:44 29.10865 -13.61403 26029 ft 296 kts 57°
2026-05-06 13:44 29.11972 -13.59412 26029 ft 296 kts 57°
2026-05-06 13:45 29.13079 -13.57418 26030 ft 296 kts 56°
2026-05-06 13:45 29.15286 -13.53443 26036 ft 294 kts 56°
2026-05-06 13:45 29.16382 -13.51468 26040 ft 293 kts 56°
2026-05-06 13:46 29.17527 -13.49579 26028 ft 292 kts 53°
2026-05-06 13:46 29.18697 -13.47675 26027 ft 293 kts 53°
2026-05-06 13:46 29.19863 -13.45752 26024 ft 295 kts 53°
2026-05-06 13:46 29.21040 -13.43825 26023 ft 295 kts 53°
2026-05-06 13:47 29.22221 -13.41902 26031 ft 295 kts 53°
2026-05-06 13:47 29.23400 -13.39976 26028 ft 296 kts 53°
2026-05-06 13:47 29.24582 -13.38041 26034 ft 296 kts 53°
2026-05-06 13:47 29.25760 -13.36114 26030 ft 296 kts 53°
2026-05-06 13:48 29.26944 -13.34177 26033 ft 296 kts 53°
2026-05-06 13:48 29.28121 -13.32247 26034 ft 296 kts 53°
2026-05-06 13:48 29.29304 -13.30311 26033 ft 296 kts 53°
2026-05-06 13:48 29.30485 -13.28374 26033 ft 296 kts 53°
2026-05-06 13:49 29.31667 -13.26438 26032 ft 296 kts 53°
2026-05-06 13:49 29.32847 -13.24501 26035 ft 296 kts 53°
2026-05-06 13:49 29.34024 -13.22567 26034 ft 296 kts 53°
2026-05-06 13:49 29.35203 -13.20632 26033 ft 296 kts 53°
2026-05-06 13:50 29.36382 -13.18696 26032 ft 296 kts 53°
2026-05-06 13:50 29.37564 -13.16754 26033 ft 297 kts 53°
2026-05-06 13:50 29.38744 -13.14814 26038 ft 297 kts 53°
2026-05-06 13:50 29.39923 -13.12873 26029 ft 297 kts 53°
2026-05-06 13:51 29.41109 -13.10922 26026 ft 299 kts 53°
2026-05-06 13:51 29.42302 -13.08957 26031 ft 301 kts 54°
2026-05-06 13:51 29.43502 -13.06980 26032 ft 302 kts 54°
2026-05-06 13:51 29.44705 -13.04998 26029 ft 303 kts 54°
2026-05-06 13:52 29.45897 -13.03031 26031 ft 304 kts 54°
2026-05-06 13:52 29.47105 -13.01036 26036 ft 305 kts 54°
2026-05-06 13:52 29.48312 -12.99042 26045 ft 304 kts 53°
2026-05-06 13:52 29.49516 -12.97054 26041 ft 302 kts 53°
2026-05-06 13:53 29.50715 -12.95073 26044 ft 301 kts 53°
2026-05-06 13:53 29.51910 -12.93099 26043 ft 301 kts 53°
2026-05-06 13:53 29.53100 -12.91131 26041 ft 300 kts 53°
2026-05-06 13:53 29.54287 -12.89165 26040 ft 299 kts 53°
2026-05-06 13:54 29.55477 -12.87196 26040 ft 299 kts 53°
2026-05-06 13:54 29.56661 -12.85235 26040 ft 299 kts 53°
2026-05-06 13:54 29.57844 -12.83274 26039 ft 299 kts 53°
2026-05-06 13:54 29.59025 -12.81316 26035 ft 298 kts 53°
2026-05-06 13:55 29.60208 -12.79356 26040 ft 298 kts 53°
2026-05-06 13:55 29.61391 -12.77391 26038 ft 298 kts 53°
2026-05-06 13:55 29.62573 -12.75430 26031 ft 300 kts 53°
2026-05-06 13:55 29.63765 -12.73452 26026 ft 301 kts 54°
2026-05-06 13:56 29.64961 -12.71462 26025 ft 303 kts 54°
2026-05-06 13:56 29.66160 -12.69468 26027 ft 303 kts 54°
2026-05-06 13:56 29.67362 -12.67468 26026 ft 304 kts 54°
2026-05-06 13:56 29.68549 -12.65495 26028 ft 304 kts 54°
2026-05-06 13:57 29.69750 -12.63493 26030 ft 304 kts 54°
2026-05-06 13:57 29.70955 -12.61485 26030 ft 304 kts 54°
2026-05-06 13:57 29.72161 -12.59475 26032 ft 305 kts 54°
2026-05-06 13:57 29.73365 -12.57468 26032 ft 305 kts 54°
2026-05-06 13:58 29.74562 -12.55453 26032 ft 305 kts 54°
2026-05-06 13:58 29.75755 -12.53431 26033 ft 305 kts 54°
2026-05-06 13:58 29.76951 -12.51408 26033 ft 306 kts 54°
2026-05-06 13:58 29.78151 -12.49383 26032 ft 306 kts 54°
2026-05-06 13:59 29.79347 -12.47360 26032 ft 306 kts 54°
2026-05-06 13:59 29.80545 -12.45334 26033 ft 306 kts 54°
2026-05-06 13:59 29.81741 -12.43308 26039 ft 305 kts 54°
2026-05-06 13:59 29.82931 -12.41293 26039 ft 303 kts 54°
2026-05-06 14:00 29.84116 -12.39288 26029 ft 303 kts 54°
2026-05-06 14:00 29.85303 -12.37278 26025 ft 304 kts 54°
2026-05-06 14:00 29.86491 -12.35262 26023 ft 305 kts 54°
2026-05-06 14:00 29.87665 -12.33268 26021 ft 305 kts 54°
2026-05-06 14:01 29.88857 -12.31247 26019 ft 305 kts 54°
2026-05-06 14:01 29.90048 -12.29225 26019 ft 305 kts 54°
2026-05-06 14:01 29.91235 -12.27209 26019 ft 305 kts 54°
2026-05-06 14:01 29.92427 -12.25179 26019 ft 305 kts 54°
2026-05-06 14:02 29.93620 -12.23152 26020 ft 305 kts 54°
2026-05-06 14:02 29.94811 -12.21126 26023 ft 305 kts 54°
2026-05-06 14:02 29.96001 -12.19099 26023 ft 305 kts 54°
2026-05-06 14:02 29.97192 -12.17072 26017 ft 305 kts 54°
2026-05-06 14:03 29.98382 -12.15044 26019 ft 305 kts 54°
2026-05-06 14:03 29.99571 -12.13015 26019 ft 305 kts 54°
2026-05-06 14:03 30.00760 -12.10989 26019 ft 305 kts 54°
2026-05-06 14:03 30.02128 -12.09134 26014 ft 302 kts 40°
2026-05-06 14:04 30.03649 -12.07467 26012 ft 301 kts 39°
2026-05-06 14:04 30.05169 -12.05805 26013 ft 302 kts 40°
2026-05-06 14:04 30.06679 -12.04111 26009 ft 302 kts 40°
2026-05-06 14:04 30.08189 -12.02412 26011 ft 304 kts 40°
2026-05-06 14:05 30.09709 -12.00713 26010 ft 305 kts 40°
2026-05-06 14:05 30.11234 -11.99007 26012 ft 306 kts 40°
2026-05-06 14:05 30.12765 -11.97293 26013 ft 307 kts 40°
2026-05-06 14:05 30.14280 -11.95596 26014 ft 307 kts 40°
2026-05-06 14:06 30.15817 -11.93873 26017 ft 308 kts 40°
2026-05-06 14:06 30.17354 -11.92149 26018 ft 308 kts 40°
2026-05-06 14:06 30.18891 -11.90425 26019 ft 308 kts 40°
2026-05-06 14:06 30.20431 -11.88697 26019 ft 308 kts 40°
2026-05-06 14:07 30.21971 -11.86968 26018 ft 308 kts 40°
2026-05-06 14:07 30.23512 -11.85237 26018 ft 309 kts 40°
2026-05-06 14:07 30.25057 -11.83500 26018 ft 309 kts 40°
2026-05-06 14:07 30.26604 -11.81761 26019 ft 309 kts 40°
2026-05-06 14:08 30.28144 -11.80030 26022 ft 309 kts 40°
2026-05-06 14:08 30.29664 -11.78319 26022 ft 309 kts 40°
2026-05-06 14:08 30.31205 -11.76583 26022 ft 309 kts 40°
2026-05-06 14:08 30.32744 -11.74849 26017 ft 309 kts 40°
2026-05-06 14:09 30.34282 -11.73115 26016 ft 309 kts 40°
2026-05-06 14:09 30.35823 -11.71380 26017 ft 309 kts 40°
2026-05-06 14:09 30.37361 -11.69643 26017 ft 309 kts 40°
2026-05-06 14:09 30.38900 -11.67906 26017 ft 309 kts 40°
2026-05-06 14:10 30.40440 -11.66169 26014 ft 309 kts 40°
2026-05-06 14:10 30.41975 -11.64435 26014 ft 309 kts 40°
2026-05-06 14:10 30.43520 -11.62688 26027 ft 309 kts 40°
2026-05-06 14:10 30.45058 -11.60949 26025 ft 308 kts 40°
2026-05-06 14:11 30.46585 -11.59219 26016 ft 306 kts 40°
2026-05-06 14:11 30.48106 -11.57499 26016 ft 305 kts 40°
2026-05-06 14:11 30.49621 -11.55786 26016 ft 304 kts 40°
2026-05-06 14:11 30.51129 -11.54078 26014 ft 303 kts 40°
2026-05-06 14:12 30.52636 -11.52370 26013 ft 302 kts 40°
2026-05-06 14:12 30.54139 -11.50665 26012 ft 302 kts 40°
2026-05-06 14:12 30.55639 -11.48964 26011 ft 302 kts 40°
2026-05-06 14:12 30.57142 -11.47260 26013 ft 301 kts 40°
2026-05-06 14:13 30.58616 -11.45585 26011 ft 301 kts 40°
2026-05-06 14:13 30.60120 -11.43877 26011 ft 301 kts 40°
2026-05-06 14:13 30.61615 -11.42178 26010 ft 301 kts 40°
2026-05-06 14:13 30.63111 -11.40478 26010 ft 301 kts 40°
2026-05-06 14:14 30.64606 -11.38777 26012 ft 301 kts 40°
2026-05-06 14:14 30.66101 -11.37076 26011 ft 301 kts 40°
2026-05-06 14:14 30.67595 -11.35374 26011 ft 301 kts 40°
2026-05-06 14:14 30.69091 -11.33671 26014 ft 301 kts 40°
2026-05-06 14:15 30.70585 -11.31969 26017 ft 301 kts 40°
2026-05-06 14:15 30.72084 -11.30261 25999 ft 302 kts 40°
2026-05-06 14:15 30.73585 -11.28549 26000 ft 303 kts 40°
2026-05-06 14:15 30.75097 -11.26824 25999 ft 304 kts 40°
2026-05-06 14:16 30.76586 -11.25123 26019 ft 304 kts 41°
2026-05-06 14:16 30.78092 -11.23402 26017 ft 303 kts 41°
2026-05-06 14:16 30.79593 -11.21688 26019 ft 301 kts 41°
2026-05-06 14:16 30.81085 -11.19982 26018 ft 301 kts 41°
2026-05-06 14:17 30.82578 -11.18275 26017 ft 300 kts 41°
2026-05-06 14:17 30.84067 -11.16572 26017 ft 300 kts 40°
2026-05-06 14:17 30.85554 -11.14870 26013 ft 300 kts 41°
2026-05-06 14:17 30.87038 -11.13171 26013 ft 300 kts 41°
2026-05-06 14:18 30.88523 -11.11467 26013 ft 299 kts 41°
2026-05-06 14:18 30.90007 -11.09766 26012 ft 299 kts 41°
2026-05-06 14:18 30.91474 -11.08084 26012 ft 299 kts 41°
2026-05-06 14:18 30.92962 -11.06378 26012 ft 299 kts 41°
2026-05-06 14:19 30.94443 -11.04678 26014 ft 299 kts 41°
2026-05-06 14:19 30.95923 -11.02977 26014 ft 299 kts 41°
2026-05-06 14:19 30.97403 -11.01276 26011 ft 299 kts 41°
2026-05-06 14:19 30.98883 -10.99576 26011 ft 299 kts 41°
2026-05-06 14:20 31.00362 -10.97875 26011 ft 299 kts 41°
2026-05-06 14:20 31.01844 -10.96170 26011 ft 299 kts 41°
2026-05-06 14:20 31.03322 -10.94469 26011 ft 299 kts 41°
2026-05-06 14:20 31.04804 -10.92763 26001 ft 301 kts 40°
2026-05-06 14:21 31.06298 -10.91044 26014 ft 302 kts 41°
2026-05-06 14:21 31.07790 -10.89322 26007 ft 301 kts 41°
2026-05-06 14:21 31.09276 -10.87605 26009 ft 300 kts 41°
2026-05-06 14:21 31.10760 -10.85895 26009 ft 299 kts 41°
2026-05-06 14:22 31.12220 -10.84209 26009 ft 299 kts 41°
2026-05-06 14:22 31.13697 -10.82504 26008 ft 299 kts 41°
2026-05-06 14:22 31.15176 -10.80797 26008 ft 298 kts 41°
2026-05-06 14:22 31.16649 -10.79094 26007 ft 298 kts 41°
2026-05-06 14:23 31.18120 -10.77392 26006 ft 298 kts 41°
2026-05-06 14:23 31.19590 -10.75691 26006 ft 298 kts 41°
2026-05-06 14:23 31.21059 -10.73991 26006 ft 298 kts 41°
2026-05-06 14:23 31.22530 -10.72288 26005 ft 297 kts 41°
2026-05-06 14:24 31.23999 -10.70587 26000 ft 297 kts 41°
2026-05-06 14:24 31.25468 -10.68885 26000 ft 297 kts 41°
2026-05-06 14:24 31.26935 -10.67182 25999 ft 297 kts 41°
2026-05-06 14:24 31.28404 -10.65478 25999 ft 297 kts 41°
2026-05-06 14:25 31.29873 -10.63773 26001 ft 297 kts 41°
2026-05-06 14:25 31.31339 -10.62070 26003 ft 297 kts 41°
2026-05-06 14:25 31.32808 -10.60363 26003 ft 297 kts 41°
2026-05-06 14:25 31.34275 -10.58659 26003 ft 297 kts 41°
2026-05-06 14:26 31.35743 -10.56955 25986 ft 297 kts 40°
2026-05-06 14:26 31.37216 -10.55245 25999 ft 299 kts 41°
2026-05-06 14:26 31.38666 -10.53554 26001 ft 298 kts 41°
2026-05-06 14:26 31.40139 -10.51837 26001 ft 298 kts 41°
2026-05-06 14:27 31.41610 -10.50124 26001 ft 298 kts 41°
2026-05-06 14:27 31.43078 -10.48415 26004 ft 298 kts 41°
2026-05-06 14:27 31.44548 -10.46700 26005 ft 298 kts 41°
2026-05-06 14:27 31.46014 -10.44990 26004 ft 298 kts 41°
2026-05-06 14:28 31.47481 -10.43276 26003 ft 298 kts 41°
2026-05-06 14:28 31.48951 -10.41561 25997 ft 298 kts 41°
2026-05-06 14:28 31.50417 -10.39847 25997 ft 298 kts 41°
2026-05-06 14:28 31.51886 -10.38130 25997 ft 298 kts 41°
2026-05-06 14:29 31.53352 -10.36416 25997 ft 298 kts 41°
2026-05-06 14:29 31.54816 -10.34696 26002 ft 298 kts 41°
2026-05-06 14:29 31.56262 -10.33002 26002 ft 298 kts 41°
2026-05-06 14:29 31.57748 -10.31264 26002 ft 298 kts 41°
2026-05-06 14:30 31.58718 -10.30128 26002 ft 298 kts 41°
2026-05-06 14:30 31.60184 -10.28410 26002 ft 298 kts 41°
2026-05-06 14:30 31.61651 -10.26689 26000 ft 298 kts 41°
2026-05-06 14:30 31.63593 -10.24411 26000 ft 298 kts 41°
2026-05-06 14:31 31.65059 -10.22690 25999 ft 298 kts 41°
2026-05-06 14:31 31.66525 -10.20968 26014 ft 298 kts 41°
2026-05-06 14:31 31.67992 -10.19244 25998 ft 299 kts 41°
2026-05-06 14:31 31.68985 -10.18078 25998 ft 299 kts 41°
2026-05-06 14:32 31.70458 -10.16346 25998 ft 299 kts 41°
2026-05-06 14:32 31.71909 -10.14637 25998 ft 299 kts 41°
2026-05-06 14:32 31.73384 -10.12901 25993 ft 299 kts 41°
2026-05-06 14:32 31.74854 -10.11171 25993 ft 299 kts 41°
2026-05-06 14:33 31.76328 -10.09435 25993 ft 299 kts 41°
2026-05-06 14:33 31.77799 -10.07701 25993 ft 299 kts 41°
2026-05-06 14:33 31.79270 -10.05966 25999 ft 299 kts 41°
2026-05-06 14:33 31.80738 -10.04234 25998 ft 299 kts 41°
2026-05-06 14:34 31.82209 -10.02498 25998 ft 299 kts 41°
2026-05-06 14:34 31.83679 -10.00762 25998 ft 300 kts 41°
2026-05-06 14:34 31.85148 -9.99027 25999 ft 300 kts 41°
2026-05-06 14:34 31.86619 -9.97288 25996 ft 300 kts 41°
2026-05-06 14:35 31.88071 -9.95569 25995 ft 300 kts 41°
2026-05-06 14:35 31.89541 -9.93831 25995 ft 300 kts 41°
2026-05-06 14:35 31.91011 -9.92090 25998 ft 300 kts 41°
2026-05-06 14:35 31.92482 -9.90349 25999 ft 300 kts 41°
2026-05-06 14:36 31.93953 -9.88607 25999 ft 300 kts 41°
2026-05-06 14:36 31.95424 -9.86862 25999 ft 300 kts 41°
2026-05-06 14:36 31.96894 -9.85118 26005 ft 301 kts 41°
2026-05-06 14:36 31.98371 -9.83365 25994 ft 301 kts 41°
2026-05-06 14:37 31.99847 -9.81613 25991 ft 301 kts 41°
2026-05-06 14:37 32.01322 -9.79861 25991 ft 301 kts 41°
2026-05-06 14:37 32.02794 -9.78110 25991 ft 300 kts 41°
2026-05-06 14:37 32.04265 -9.76362 25991 ft 300 kts 41°
2026-05-06 14:38 32.05737 -9.74613 25994 ft 300 kts 41°
2026-05-06 14:38 32.07207 -9.72864 25988 ft 300 kts 41°
2026-05-06 14:38 32.08676 -9.71113 25989 ft 301 kts 41°
2026-05-06 14:38 32.10150 -9.69357 25989 ft 301 kts 41°
2026-05-06 14:39 32.11623 -9.67602 25985 ft 301 kts 41°
2026-05-06 14:39 32.13094 -9.65849 25985 ft 301 kts 41°
2026-05-06 14:39 32.14563 -9.64094 25991 ft 301 kts 41°
2026-05-06 14:39 32.16034 -9.62338 25985 ft 301 kts 41°
2026-05-06 14:40 32.17485 -9.60607 25986 ft 301 kts 41°
2026-05-06 14:40 32.18954 -9.58852 25992 ft 301 kts 41°
2026-05-06 14:40 32.20424 -9.57095 25986 ft 301 kts 41°
2026-05-06 14:40 32.21895 -9.55336 25986 ft 301 kts 41°
2026-05-06 14:41 32.23364 -9.53577 25984 ft 300 kts 41°
2026-05-06 14:41 32.24834 -9.51819 25984 ft 300 kts 41°
2026-05-06 14:41 32.26301 -9.50062 26007 ft 301 kts 41°
2026-05-06 14:41 32.27772 -9.48299 25987 ft 302 kts 41°
2026-05-06 14:42 32.29247 -9.46531 25987 ft 302 kts 41°
2026-05-06 14:42 32.30720 -9.44764 25980 ft 302 kts 41°
2026-05-06 14:42 32.32195 -9.42994 25980 ft 302 kts 41°
2026-05-06 14:42 32.33670 -9.41223 25980 ft 302 kts 41°
2026-05-06 14:43 32.35145 -9.39452 25979 ft 302 kts 41°
2026-05-06 14:43 32.36620 -9.37678 25973 ft 302 kts 41°
2026-05-06 14:43 32.38093 -9.35908 25976 ft 302 kts 41°
2026-05-06 14:43 32.39570 -9.34131 25976 ft 303 kts 41°
2026-05-06 14:44 32.41046 -9.32354 25978 ft 303 kts 41°
2026-05-06 14:44 32.42524 -9.30576 25978 ft 303 kts 41°
2026-05-06 14:44 32.43996 -9.28801 25978 ft 303 kts 42°
2026-05-06 14:45 32.46947 -9.25243 25977 ft 302 kts 42°
2026-05-06 14:45 32.48423 -9.23462 25972 ft 303 kts 42°
2026-05-06 14:45 32.49898 -9.21682 25974 ft 303 kts 42°
2026-05-06 14:45 32.51376 -9.19897 25974 ft 303 kts 42°
2026-05-06 14:46 32.52830 -9.18140 25976 ft 303 kts 42°
2026-05-06 14:46 32.54306 -9.16355 25977 ft 303 kts 42°
2026-05-06 14:46 32.55782 -9.14570 26004 ft 303 kts 42°
2026-05-06 14:46 32.57264 -9.12777 25982 ft 304 kts 42°
2026-05-06 14:47 32.58745 -9.10983 25984 ft 305 kts 42°
2026-05-06 14:47 32.60229 -9.09186 25984 ft 305 kts 42°
2026-05-06 14:47 32.61714 -9.07386 25972 ft 305 kts 42°
2026-05-06 14:47 32.63195 -9.05591 25972 ft 305 kts 42°
2026-05-06 14:48 32.64676 -9.03792 25971 ft 305 kts 42°
2026-05-06 14:48 32.66158 -9.01994 25971 ft 305 kts 42°
2026-05-06 14:48 32.67638 -9.00198 25970 ft 305 kts 42°
2026-05-06 14:48 32.69119 -8.98398 25970 ft 304 kts 42°
2026-05-06 14:49 32.70596 -8.96602 25973 ft 304 kts 42°
2026-05-06 14:49 32.72074 -8.94805 25973 ft 304 kts 42°
2026-05-06 14:49 32.73552 -8.93006 25973 ft 304 kts 42°
2026-05-06 14:49 32.75028 -8.91209 25972 ft 304 kts 42°
2026-05-06 14:50 32.76485 -8.89434 25971 ft 304 kts 42°
2026-05-06 14:50 32.77982 -8.87609 25970 ft 304 kts 42°
2026-05-06 14:50 32.79458 -8.85810 25971 ft 304 kts 42°
2026-05-06 14:50 32.80931 -8.84013 25970 ft 304 kts 42°
2026-05-06 14:51 32.82383 -8.82240 25968 ft 304 kts 42°
2026-05-06 14:51 32.83858 -8.80439 25969 ft 304 kts 42°
2026-05-06 14:51 32.85334 -8.78636 25987 ft 305 kts 42°
2026-05-06 14:51 32.86816 -8.76825 25978 ft 305 kts 42°
2026-05-06 14:52 32.88297 -8.75013 25979 ft 306 kts 42°
2026-05-06 14:52 32.89780 -8.73198 25979 ft 306 kts 42°
2026-05-06 14:52 32.91261 -8.71385 25972 ft 306 kts 42°
2026-05-06 14:52 32.92744 -8.69570 25974 ft 306 kts 42°
2026-05-06 14:53 32.94227 -8.67751 25973 ft 306 kts 42°
2026-05-06 14:53 32.95711 -8.65930 25972 ft 306 kts 42°
2026-05-06 14:53 32.97195 -8.64109 25970 ft 306 kts 42°
2026-05-06 14:53 32.98678 -8.62288 25970 ft 306 kts 42°
2026-05-06 14:54 33.00157 -8.60474 25969 ft 305 kts 42°
2026-05-06 14:54 33.01636 -8.58657 25969 ft 306 kts 43°
2026-05-06 14:54 33.03116 -8.56839 25969 ft 305 kts 43°
2026-05-06 14:54 33.04594 -8.55020 25968 ft 306 kts 43°
2026-05-06 14:55 33.06072 -8.53200 25965 ft 305 kts 43°
2026-05-06 14:55 33.07549 -8.51383 25965 ft 305 kts 43°
2026-05-06 14:55 33.09006 -8.49588 25967 ft 305 kts 43°
2026-05-06 14:55 33.10483 -8.47767 25963 ft 306 kts 43°
2026-05-06 14:56 33.11960 -8.45944 25969 ft 306 kts 43°
2026-05-06 14:56 33.13441 -8.44119 25969 ft 306 kts 43°
2026-05-06 14:56 33.14917 -8.42296 25969 ft 306 kts 43°
2026-05-06 14:56 33.16399 -8.40464 25969 ft 306 kts 43°
2026-05-06 14:57 33.17877 -8.38638 25969 ft 306 kts 43°
2026-05-06 14:57 33.19376 -8.36844 25965 ft 304 kts 37°
2026-05-06 14:57 33.21095 -8.35401 25961 ft 299 kts 26°
2026-05-06 14:57 33.22876 -8.34105 25950 ft 299 kts 25°
2026-05-06 14:58 33.24643 -8.32795 25959 ft 299 kts 27°
2026-05-06 14:58 33.26399 -8.31462 25961 ft 299 kts 27°
2026-05-06 14:58 33.28136 -8.30147 25960 ft 299 kts 26°
2026-05-06 14:58 33.29896 -8.28825 25961 ft 299 kts 26°
2026-05-06 14:59 33.31658 -8.27501 25961 ft 299 kts 26°
2026-05-06 14:59 33.33418 -8.26175 25961 ft 299 kts 27°
2026-05-06 14:59 33.35179 -8.24844 25961 ft 299 kts 26°
2026-05-06 14:59 33.36939 -8.23517 25960 ft 299 kts 26°
2026-05-06 15:00 33.38696 -8.22191 25959 ft 299 kts 26°
2026-05-06 15:00 33.40454 -8.20864 25959 ft 299 kts 27°
2026-05-06 15:00 33.42210 -8.19536 25977 ft 299 kts 26°
2026-05-06 15:00 33.43977 -8.18203 25969 ft 300 kts 26°
2026-05-06 15:01 33.45743 -8.16867 25970 ft 300 kts 26°
2026-05-06 15:01 33.47509 -8.15529 25970 ft 300 kts 26°
2026-05-06 15:01 33.49276 -8.14192 25970 ft 300 kts 26°
2026-05-06 15:01 33.51045 -8.12854 25970 ft 301 kts 26°
2026-05-06 15:02 33.52792 -8.11529 25971 ft 301 kts 26°
2026-05-06 15:02 33.54558 -8.10190 25975 ft 301 kts 26°
2026-05-06 15:02 33.56331 -8.08845 25974 ft 301 kts 26°
2026-05-06 15:02 33.58102 -8.07500 25973 ft 301 kts 26°
2026-05-06 15:03 33.59883 -8.06148 25974 ft 305 kts 26°
2026-05-06 15:03 33.61685 -8.04779 25970 ft 308 kts 26°
2026-05-06 15:03 33.63490 -8.03406 25966 ft 306 kts 26°
2026-05-06 15:03 33.65285 -8.02040 25968 ft 305 kts 26°
2026-05-06 15:04 33.67073 -8.00681 25967 ft 304 kts 26°
2026-05-06 15:04 33.68857 -7.99324 25965 ft 303 kts 26°
2026-05-06 15:04 33.70639 -7.97967 25970 ft 304 kts 26°
2026-05-06 15:04 33.72426 -7.96608 25969 ft 304 kts 26°
2026-05-06 15:05 33.74212 -7.95246 25969 ft 304 kts 26°
2026-05-06 15:05 33.75998 -7.93883 25970 ft 304 kts 26°
2026-05-06 15:05 33.77783 -7.92521 25970 ft 304 kts 26°
2026-05-06 15:05 33.79569 -7.91157 25970 ft 304 kts 26°
2026-05-06 15:06 33.81334 -7.89809 25969 ft 304 kts 26°
2026-05-06 15:06 33.83119 -7.88444 25969 ft 304 kts 26°
2026-05-06 15:06 33.84908 -7.87078 25969 ft 304 kts 26°
2026-05-06 15:06 33.86696 -7.85709 25970 ft 305 kts 26°
2026-05-06 15:07 33.88486 -7.84339 25971 ft 305 kts 26°
2026-05-06 15:07 33.90274 -7.82970 25971 ft 304 kts 26°
2026-05-06 15:07 33.92062 -7.81601 25971 ft 305 kts 26°
2026-05-06 15:07 33.93850 -7.80231 25971 ft 305 kts 26°
2026-05-06 15:08 33.95638 -7.78858 25971 ft 305 kts 26°
2026-05-06 15:08 33.97427 -7.77485 25995 ft 305 kts 26°
2026-05-06 15:08 33.99225 -7.76106 25967 ft 306 kts 26°
2026-05-06 15:08 34.01014 -7.74731 25979 ft 305 kts 26°
2026-05-06 15:09 34.02783 -7.73372 25974 ft 306 kts 26°
2026-05-06 15:09 34.04575 -7.71995 25970 ft 306 kts 26°
2026-05-06 15:09 34.06367 -7.70616 25962 ft 306 kts 26°
2026-05-06 15:09 34.08160 -7.69236 25970 ft 306 kts 26°
2026-05-06 15:10 34.09955 -7.67853 25968 ft 306 kts 26°
2026-05-06 15:10 34.11746 -7.66474 25970 ft 305 kts 26°
2026-05-06 15:10 34.13537 -7.65095 25969 ft 305 kts 26°
2026-05-06 15:10 34.15330 -7.63711 25969 ft 305 kts 27°
2026-05-06 15:11 34.17122 -7.62328 25970 ft 305 kts 26°
2026-05-06 15:11 34.18915 -7.60943 25970 ft 306 kts 26°
2026-05-06 15:11 34.20708 -7.59559 25955 ft 305 kts 27°
2026-05-06 15:11 34.22486 -7.58183 25965 ft 305 kts 27°
2026-05-06 15:12 34.24282 -7.56795 25987 ft 305 kts 26°
2026-05-06 15:12 34.26071 -7.55414 25970 ft 305 kts 27°
2026-05-06 15:12 34.27862 -7.54027 25968 ft 305 kts 27°
2026-05-06 15:12 34.29652 -7.52640 25967 ft 305 kts 27°
2026-05-06 15:13 34.31419 -7.51270 25966 ft 305 kts 27°
2026-05-06 15:13 34.33205 -7.49886 25966 ft 305 kts 27°
2026-05-06 15:13 34.34994 -7.48499 25966 ft 305 kts 27°
2026-05-06 15:13 34.36784 -7.47111 25966 ft 305 kts 27°
2026-05-06 15:14 34.38566 -7.45727 25965 ft 305 kts 27°
2026-05-06 15:14 34.40359 -7.44334 25966 ft 305 kts 27°
2026-05-06 15:14 34.42147 -7.42945 25965 ft 305 kts 27°
2026-05-06 15:14 34.43933 -7.41556 25965 ft 305 kts 27°
2026-05-06 15:15 34.45720 -7.40166 25967 ft 305 kts 27°
2026-05-06 15:15 34.47507 -7.38777 25967 ft 305 kts 27°
2026-05-06 15:15 34.49293 -7.37387 25967 ft 305 kts 27°
2026-05-06 15:15 34.51083 -7.35990 25967 ft 305 kts 27°
2026-05-06 15:16 34.52871 -7.34595 25972 ft 306 kts 27°
2026-05-06 15:16 34.54659 -7.33200 25972 ft 305 kts 27°
2026-05-06 15:16 34.56444 -7.31808 25972 ft 305 kts 27°
2026-05-06 15:16 34.58225 -7.30418 25972 ft 305 kts 27°
2026-05-06 15:17 34.60009 -7.29025 25970 ft 305 kts 27°
2026-05-06 15:17 34.61796 -7.27626 25972 ft 305 kts 27°
2026-05-06 15:17 34.63557 -7.26250 25970 ft 305 kts 27°
2026-05-06 15:17 34.65339 -7.24857 25970 ft 304 kts 27°
2026-05-06 15:18 34.67118 -7.23464 25968 ft 304 kts 27°
2026-05-06 15:18 34.68898 -7.22069 25968 ft 304 kts 27°
2026-05-06 15:18 34.70677 -7.20676 25956 ft 304 kts 27°
2026-05-06 15:18 34.72455 -7.19282 25956 ft 304 kts 28°
2026-05-06 15:19 34.74235 -7.17885 25956 ft 304 kts 28°
2026-05-06 15:19 34.76016 -7.16488 25957 ft 305 kts 28°
2026-05-06 15:19 34.77797 -7.15089 25957 ft 305 kts 28°
2026-05-06 15:19 34.79583 -7.13685 25972 ft 305 kts 28°
2026-05-06 15:20 34.81365 -7.12284 25968 ft 305 kts 28°
2026-05-06 15:20 34.83124 -7.10901 25968 ft 304 kts 28°
2026-05-06 15:20 34.84904 -7.09502 25968 ft 305 kts 28°
2026-05-06 15:20 34.86683 -7.08102 25968 ft 304 kts 28°
2026-05-06 15:21 34.88461 -7.06700 25968 ft 304 kts 28°
2026-05-06 15:21 34.90240 -7.05298 25968 ft 304 kts 28°
2026-05-06 15:21 34.92016 -7.03897 25968 ft 304 kts 28°
2026-05-06 15:21 34.93193 -7.02970 25968 ft 304 kts 28°
2026-05-06 15:22 34.94968 -7.01568 25967 ft 304 kts 28°
2026-05-06 15:22 34.96753 -7.00159 25966 ft 304 kts 28°
2026-05-06 15:22 34.99104 -6.98301 25964 ft 304 kts 28°
2026-05-06 15:22 35.00879 -6.96898 25964 ft 304 kts 28°
2026-05-06 15:23 35.02077 -6.95950 25965 ft 304 kts 28°
2026-05-06 15:23 35.03853 -6.94545 25964 ft 304 kts 28°
2026-05-06 15:23 35.05625 -6.93143 25968 ft 304 kts 28°
2026-05-06 15:23 35.07400 -6.91736 25965 ft 304 kts 28°
2026-05-06 15:24 35.09175 -6.90329 25966 ft 303 kts 28°
2026-05-06 15:24 35.10918 -6.88947 25965 ft 303 kts 28°
2026-05-06 15:24 35.12682 -6.87548 25965 ft 302 kts 28°
2026-05-06 15:24 35.14445 -6.86148 25965 ft 302 kts 28°
2026-05-06 15:25 35.16211 -6.84747 25964 ft 302 kts 28°
2026-05-06 15:25 35.17976 -6.83344 25948 ft 302 kts 28°
2026-05-06 15:25 35.19743 -6.81939 25947 ft 303 kts 28°
2026-05-06 15:25 35.21510 -6.80534 25946 ft 303 kts 28°
2026-05-06 15:26 35.23278 -6.79127 25953 ft 304 kts 28°
2026-05-06 15:26 35.25049 -6.77716 25953 ft 304 kts 28°
2026-05-06 15:26 35.26824 -6.76301 25954 ft 304 kts 28°
2026-05-06 15:26 35.28596 -6.74888 25954 ft 304 kts 28°
2026-05-06 15:27 35.30370 -6.73474 25954 ft 304 kts 28°
2026-05-06 15:27 35.32144 -6.72059 25961 ft 304 kts 28°
2026-05-06 15:27 35.33915 -6.70645 25962 ft 304 kts 28°
2026-05-06 15:27 35.35664 -6.69248 25962 ft 303 kts 28°
2026-05-06 15:28 35.37434 -6.67840 25961 ft 303 kts 28°
2026-05-06 15:28 35.39199 -6.66435 25961 ft 303 kts 28°
2026-05-06 15:28 35.40967 -6.65026 25961 ft 303 kts 28°
2026-05-06 15:28 35.42733 -6.63617 25960 ft 303 kts 28°
2026-05-06 15:29 35.44499 -6.62208 25961 ft 302 kts 28°
2026-05-06 15:29 35.46263 -6.60800 25961 ft 303 kts 28°
2026-05-06 15:29 35.48033 -6.59386 25958 ft 303 kts 28°
2026-05-06 15:29 35.49796 -6.57977 25958 ft 303 kts 28°
2026-05-06 15:30 35.51559 -6.56567 25958 ft 303 kts 28°
2026-05-06 15:30 35.53330 -6.55150 25958 ft 303 kts 28°
2026-05-06 15:30 35.55097 -6.53734 25952 ft 303 kts 28°
2026-05-06 15:30 35.56870 -6.52315 25867 ft 307 kts 28°
2026-05-06 15:31 35.58689 -6.50861 25542 ft 317 kts 30°
2026-05-06 15:31 35.60532 -6.49377 25119 ft 324 kts 30°
2026-05-06 15:31 35.62400 -6.47869 24689 ft 319 kts 30°
2026-05-06 15:32 35.66062 -6.44929 23857 ft 311 kts 30°
2026-05-06 15:32 35.67879 -6.43474 23434 ft 311 kts 30°
2026-05-06 15:32 35.69686 -6.42024 22991 ft 309 kts 30°
2026-05-06 15:32 35.71467 -6.40584 22579 ft 304 kts 30°
2026-05-06 15:33 35.73221 -6.39174 22181 ft 298 kts 30°
2026-05-06 15:33 35.74945 -6.37787 21787 ft 295 kts 30°
2026-05-06 15:33 35.76654 -6.36412 21401 ft 293 kts 30°
2026-05-06 15:33 35.78350 -6.35042 21017 ft 290 kts 30°
2026-05-06 15:34 35.80034 -6.33683 20634 ft 289 kts 30°
2026-05-06 15:34 35.81706 -6.32334 20254 ft 286 kts 30°
2026-05-06 15:34 35.83367 -6.30992 19884 ft 284 kts 30°
2026-05-06 15:34 35.85014 -6.29652 19502 ft 282 kts 31°
2026-05-06 15:35 35.86641 -6.28309 19126 ft 281 kts 31°
2026-05-06 15:35 35.88252 -6.26983 18821 ft 276 kts 31°
2026-05-06 15:35 35.89850 -6.25674 18473 ft 275 kts 31°
2026-05-06 15:35 35.91439 -6.24370 18098 ft 274 kts 31°
2026-05-06 15:36 35.93016 -6.23073 17707 ft 271 kts 31°
2026-05-06 15:36 35.94579 -6.21787 17358 ft 269 kts 31°
2026-05-06 15:36 35.96129 -6.20514 17022 ft 266 kts 31°
2026-05-06 15:36 35.97660 -6.19255 16700 ft 263 kts 31°
2026-05-06 15:37 35.99158 -6.18022 16385 ft 261 kts 31°
2026-05-06 15:37 36.00668 -6.16778 16056 ft 260 kts 32°
2026-05-06 15:37 36.02172 -6.15539 15723 ft 259 kts 32°
2026-05-06 15:37 36.03674 -6.14300 15389 ft 259 kts 32°
2026-05-06 15:38 36.05166 -6.13070 15056 ft 257 kts 32°
2026-05-06 15:38 36.06649 -6.11845 14735 ft 254 kts 32°
2026-05-06 15:38 36.08115 -6.10636 14424 ft 252 kts 32°
2026-05-06 15:38 36.09566 -6.09438 14121 ft 250 kts 32°
2026-05-06 15:39 36.11010 -6.08244 13797 ft 249 kts 32°
2026-05-06 15:39 36.12451 -6.07053 13450 ft 248 kts 32°
2026-05-06 15:39 36.13883 -6.05870 13122 ft 246 kts 32°
2026-05-06 15:39 36.15303 -6.04695 12819 ft 245 kts 32°
2026-05-06 15:40 36.16716 -6.03525 12503 ft 244 kts 32°
2026-05-06 15:40 36.18125 -6.02357 12193 ft 243 kts 32°
2026-05-06 15:40 36.19538 -6.01189 11872 ft 244 kts 32°
2026-05-06 15:40 36.20946 -6.00017 11547 ft 243 kts 32°
2026-05-06 15:41 36.22347 -5.98856 11240 ft 241 kts 32°
2026-05-06 15:41 36.23751 -5.97745 10935 ft 237 kts 25°
2026-05-06 15:41 36.25299 -5.97113 10643 ft 234 kts 11°
2026-05-06 15:41 36.26855 -5.96649 10363 ft 232 kts 11°
2026-05-06 15:42 36.28420 -5.96165 10075 ft 232 kts 11°
2026-05-06 15:42 36.29988 -5.95678 9760 ft 232 kts 11°
2026-05-06 15:42 36.31552 -5.95194 9432 ft 230 kts 11°
2026-05-06 15:42 36.33093 -5.94719 9160 ft 226 kts 11°
2026-05-06 15:43 36.34605 -5.94252 8904 ft 223 kts 11°
2026-05-06 15:43 36.36117 -5.93789 8614 ft 224 kts 12°
2026-05-06 15:43 36.37622 -5.93323 8333 ft 221 kts 12°
2026-05-06 15:43 36.39107 -5.92863 8078 ft 218 kts 12°
2026-05-06 15:44 36.40577 -5.92411 7809 ft 218 kts 12°
2026-05-06 15:44 36.42057 -5.91952 7523 ft 220 kts 12°
2026-05-06 15:44 36.43538 -5.91493 7237 ft 219 kts 13°
2026-05-06 15:44 36.45010 -5.91036 6968 ft 216 kts 13°
2026-05-06 15:45 36.46487 -5.90817 6693 ft 214 kts 355°
2026-05-06 15:45 36.47920 -5.91232 6421 ft 212 kts 336°
2026-05-06 15:45 36.49152 -5.92205 6140 ft 210 kts 317°
2026-05-06 15:45 36.50041 -5.93596 5870 ft 208 kts 299°
2026-05-06 15:46 36.50520 -5.95281 5600 ft 206 kts 280°
2026-05-06 15:46 36.50537 -5.97055 5331 ft 206 kts 262°
2026-05-06 15:46 36.50317 -5.98811 5066 ft 206 kts 262°
2026-05-06 15:46 36.50113 -6.00568 4800 ft 205 kts 262°
2026-05-06 15:47 36.49911 -6.02330 4517 ft 205 kts 264°
2026-05-06 15:47 36.50004 -6.04075 4241 ft 203 kts 283°
2026-05-06 15:47 36.50286 -6.05783 3969 ft 201 kts 281°
2026-05-06 15:47 36.50538 -6.07483 3709 ft 199 kts 281°
2026-05-06 15:48 36.50793 -6.09157 3450 ft 194 kts 281°
2026-05-06 15:48 36.51047 -6.10776 3176 ft 187 kts 281°
2026-05-06 15:48 36.51399 -6.12292 2945 ft 185 kts 294°
2026-05-06 15:48 36.52136 -6.13614 2706 ft 184 kts 311°
2026-05-06 15:49 36.53166 -6.14568 2509 ft 186 kts 329°
2026-05-06 15:49 36.54370 -6.15058 2505 ft 181 kts 348°
2026-05-06 15:49 36.55630 -6.15053 2496 ft 182 kts
2026-05-06 15:49 36.56811 -6.14591 2486 ft 180 kts 18°
2026-05-06 15:50 36.57984 -6.14018 2489 ft 178 kts 17°
2026-05-06 15:50 36.59115 -6.13474 2488 ft 176 kts 17°
2026-05-06 15:50 36.60246 -6.12925 2503 ft 170 kts 17°
2026-05-06 15:50 36.61292 -6.12418 2501 ft 153 kts 16°
2026-05-06 15:51 36.62266 -6.11947 2436 ft 151 kts 16°
2026-05-06 15:51 36.63260 -6.11466 2249 ft 155 kts 17°
2026-05-06 15:51 36.64265 -6.10980 2042 ft 155 kts 18°
2026-05-06 15:51 36.65285 -6.10482 1829 ft 158 kts 17°
2026-05-06 15:52 36.66310 -6.09984 1614 ft 159 kts 15°
2026-05-06 15:52 36.67338 -6.09483 1392 ft 158 kts 15°
2026-05-06 15:52 36.68344 -6.08995 1176 ft 151 kts 17°
2026-05-06 15:52 36.69275 -6.08532 988 ft 134 kts 17°
2026-05-06 15:53 36.70076 -6.08136 824 ft 112 kts 13°
2026-05-06 15:53 36.70759 -6.07812 681 ft 103 kts 15°
2026-05-06 15:53 36.71407 -6.07498 529 ft 93 kts 15°
2026-05-06 15:53 36.72029 -6.07209 421 ft 101 kts 17°
2026-05-06 15:54 36.72695 -6.06881 282 ft 104 kts 18°
2026-05-06 15:54 36.73373 -6.06540 123 ft 104 kts 17°
2026-05-06 15:54 36.73989 -6.06236 70 ft 82 kts 21°
2026-05-06 15:54 36.74420 -6.06031 74 ft 49 kts 21°
2026-05-06 15:55 36.74648 -6.05939 82 ft 20 kts 341°
2026-05-06 15:55 36.74707 -6.06008 82 ft 0 kts 297°
2026-05-06 15:55 36.74720 -6.06045 86 ft 8 kts 292°
2026-05-06 15:55 36.74726 -6.06071 82 ft 0 kts 270°
2026-05-06 15:56 36.74715 -6.06107 83 ft 13 kts 226°
2026-05-06 15:56 36.74601 -6.06165 83 ft 20 kts 200°
2026-05-06 15:56 36.74473 -6.06225 73 ft 18 kts 200°
2026-05-06 15:56 36.74422 -6.06330 78 ft 14 kts 271°
2026-05-06 15:57 36.74419 -6.06441 77 ft 11 kts 229°
2026-05-06 15:57 36.74393 -6.06504 75 ft 9 kts 275°
2026-05-06 15:57 36.74394 -6.06557 75 ft 0 kts 270°
2026-05-06 15:57 36.74394 -6.06558 77 ft 0 kts 270°